Tracking 25963 objects as of 13-Aug-2022
HD Live streaming from Space Station
objects crossing your sky now

STARLINK-2185

Track STARLINK-2185 now!
10-day predictions
STARLINK-2185 is classified as:


NORAD ID: 47767
Int'l Code: 2021-017AX
Perigee: 553.4 km
Apogee: 555.3 km
Inclination: 53.1 °
Period: 95.6 minutes
Semi major axis: 6925 km
RCS: Unknown
Launch date: March 4, 2021
Source: United States (US)
Launch site: AIR FORCE EASTERN TEST RANGE (AFETR)
aabbcc
Your satellite tracking list
Your tracking list is empty




NASA's NSSDC Master Catalog

Two Line Element Set (TLE):
1 47767U 21017AX  22224.52077184  .00012224  00000-0  83796-3 0  9995
2 47767  53.0546 310.7555 0001365  76.4062 283.7079 15.06406513 81064
Source of the keplerian elements: AFSPC